TimeEDT,TemperatureF,Dew PointF,Humidity,Sea Level PressureIn,VisibilityMPH,Wind Direction,Wind SpeedMPH,Gust SpeedMPH,PrecipitationIn,Events,Conditions,WindDirDegrees,DateUTC
12:14 AM,53.6,51.8,94,29.86,10.0,NW,8.1,-,N/A,,Overcast,320,2013-06-17 04:14:00
12:34 AM,53.6,51.8,94,29.87,10.0,NW,6.9,-,N/A,,Mostly Cloudy,310,2013-06-17 04:34:00
12:55 AM,53.6,51.8,94,29.87,10.0,NW,5.8,-,N/A,,Scattered Clouds,320,2013-06-17 04:55:00
1:14 AM,51.8,50.0,94,29.86,10.0,WNW,4.6,-,N/A,,Clear,300,2013-06-17 05:14:00
1:35 AM,51.8,50.0,94,29.86,10.0,NW,4.6,-,N/A,,Clear,320,2013-06-17 05:35:00
1:55 AM,51.8,50.0,94,29.87,10.0,NNW,4.6,-,N/A,,Mostly Cloudy,340,2013-06-17 05:55:00
2:14 AM,51.8,48.2,88,29.86,10.0,North,5.8,-,N/A,,Overcast,350,2013-06-17 06:14:00
2:35 AM,50.0,48.2,94,29.86,10.0,North,3.5,-,N/A,,Overcast,360,2013-06-17 06:35:00
2:55 AM,50.0,48.2,94,29.87,10.0,NNW,4.6,-,N/A,,Overcast,330,2013-06-17 06:55:00
3:14 AM,50.0,48.2,94,29.87,10.0,NNW,3.5,-,N/A,,Overcast,330,2013-06-17 07:14:00
3:35 AM,50.0,48.2,94,29.88,10.0,WNW,3.5,-,N/A,,Overcast,300,2013-06-17 07:35:00
3:55 AM,50.0,48.2,94,29.89,10.0,WNW,4.6,-,N/A,,Overcast,300,2013-06-17 07:55:00
4:14 AM,50.0,48.2,94,29.89,10.0,NW,3.5,-,N/A,,Overcast,310,2013-06-17 08:14:00
4:35 AM,50.0,48.2,94,29.90,10.0,West,3.5,-,N/A,,Overcast,280,2013-06-17 08:35:00
4:54 AM,50.0,48.2,94,29.90,10.0,Calm,Calm,-,N/A,,Overcast,0,2013-06-17 08:54:00
5:14 AM,48.2,48.2,100,29.90,10.0,Calm,Calm,-,N/A,,Overcast,0,2013-06-17 09:14:00
5:35 AM,48.2,46.4,93,29.90,10.0,NNW,3.5,-,N/A,,Overcast,340,2013-06-17 09:35:00
5:54 AM,48.2,46.4,93,29.90,10.0,NNW,4.6,-,N/A,,Overcast,330,2013-06-17 09:54:00
6:15 AM,48.2,46.4,93,29.92,10.0,Calm,Calm,-,N/A,,Overcast,0,2013-06-17 10:15:00
6:35 AM,48.2,46.4,93,29.93,10.0,North,4.6,-,N/A,,Mostly Cloudy,360,2013-06-17 10:35:00
6:54 AM,46.4,44.6,93,29.93,10.0,North,3.5,-,N/A,,Mostly Cloudy,350,2013-06-17 10:54:00
7:15 AM,46.4,44.6,93,29.94,10.0,Calm,Calm,-,N/A,,Mostly Cloudy,0,2013-06-17 11:15:00
7:35 AM,48.2,46.4,93,29.94,10.0,North,4.6,-,N/A,,Overcast,10,2013-06-17 11:35:00
7:54 AM,48.2,46.4,93,29.94,10.0,North,5.8,-,N/A,,Overcast,10,2013-06-17 11:54:00
8:15 AM,48.2,46.4,93,29.94,10.0,North,5.8,-,N/A,,Overcast,360,2013-06-17 12:15:00
8:34 AM,50.0,46.4,87,29.94,10.0,NNE,4.6,-,N/A,,Overcast,20,2013-06-17 12:34:00
8:55 AM,51.8,48.2,88,29.95,10.0,NNE,4.6,-,N/A,,Overcast,20,2013-06-17 12:55:00
9:15 AM,53.6,48.2,82,29.95,10.0,North,4.6,-,N/A,,Overcast,350,2013-06-17 13:15:00
9:34 AM,53.6,48.2,82,-9999,10.0,Calm,Calm,-,N/A,,Overcast,0,2013-06-17 13:34:00
9:55 AM,53.6,50.0,88,29.96,10.0,NNE,4.6,-,N/A,,Overcast,30,2013-06-17 13:55:00
10:14 AM,55.4,50.0,82,29.95,10.0,NNE,5.8,-,N/A,,Overcast,20,2013-06-17 14:14:00
10:34 AM,57.2,51.8,82,29.95,10.0,North,5.8,-,N/A,,Overcast,360,2013-06-17 14:34:00
10:55 AM,57.2,50.0,77,29.96,10.0,NNE,6.9,-,N/A,,Overcast,20,2013-06-17 14:55:00
11:14 AM,57.2,50.0,77,29.96,10.0,Calm,Calm,-,N/A,,Overcast,0,2013-06-17 15:14:00
11:34 AM,59.0,50.0,72,29.97,10.0,North,6.9,-,N/A,,Overcast,360,2013-06-17 15:34:00
11:54 AM,59.0,50.0,72,29.98,10.0,Calm,Calm,-,N/A,,Overcast,0,2013-06-17 15:54:00
12:14 PM,59.0,50.0,72,29.98,10.0,Calm,Calm,-,N/A,,Overcast,0,2013-06-17 16:14:00
12:35 PM,60.8,48.2,63,29.98,10.0,North,4.6,-,N/A,,Overcast,350,2013-06-17 16:35:00
12:54 PM,60.8,50.0,68,29.98,10.0,NE,8.1,-,N/A,,Mostly Cloudy,40,2013-06-17 16:54:00
1:15 PM,60.8,50.0,68,29.98,10.0,WNW,4.6,-,N/A,,Overcast,300,2013-06-17 17:15:00
1:35 PM,62.6,50.0,63,29.98,10.0,North,6.9,-,N/A,,Overcast,10,2013-06-17 17:35:00
1:54 PM,62.6,48.2,59,29.98,10.0,Calm,Calm,-,N/A,,Mostly Cloudy,0,2013-06-17 17:54:00
2:15 PM,62.6,48.2,59,29.98,10.0,Calm,Calm,-,N/A,,Mostly Cloudy,0,2013-06-17 18:15:00
2:35 PM,62.6,48.2,59,29.98,10.0,NNE,6.9,-,N/A,,Overcast,20,2013-06-17 18:35:00
2:54 PM,64.4,50.0,59,29.98,10.0,East,5.8,-,N/A,,Overcast,80,2013-06-17 18:54:00
3:15 PM,64.4,48.2,56,29.98,10.0,North,3.5,-,N/A,,Overcast,350,2013-06-17 19:15:00
3:34 PM,62.6,50.0,63,29.98,10.0,NE,5.8,-,N/A,,Mostly Cloudy,50,2013-06-17 19:34:00
3:54 PM,64.4,48.2,56,29.97,10.0,NNE,3.5,-,N/A,,Mostly Cloudy,20,2013-06-17 19:54:00
4:15 PM,64.4,48.2,56,29.97,10.0,WNW,5.8,-,N/A,,Mostly Cloudy,300,2013-06-17 20:15:00
4:34 PM,66.2,50.0,56,29.97,10.0,NNW,5.8,16.1,N/A,,Scattered Clouds,340,2013-06-17 20:34:00
4:54 PM,66.2,50.0,56,29.96,10.0,North,11.5,17.3,N/A,,Scattered Clouds,10,2013-06-17 20:54:00
5:15 PM,64.4,50.0,59,29.97,10.0,NNW,6.9,-,N/A,,Clear,340,2013-06-17 21:15:00
5:34 PM,64.4,50.0,59,29.97,10.0,North,8.1,-,N/A,,Clear,360,2013-06-17 21:34:00
5:55 PM,64.4,48.2,56,29.98,10.0,North,8.1,-,N/A,,Clear,360,2013-06-17 21:55:00
6:14 PM,62.6,48.2,59,29.98,10.0,North,8.1,16.1,N/A,,Clear,350,2013-06-17 22:14:00
6:35 PM,62.6,48.2,59,29.99,10.0,NNW,6.9,-,N/A,,Clear,340,2013-06-17 22:35:00
6:54 PM,62.6,48.2,59,30.00,10.0,NNW,6.9,-,N/A,,Clear,340,2013-06-17 22:54:00
7:14 PM,60.8,48.2,63,30.00,10.0,NNW,8.1,-,N/A,,Clear,340,2013-06-17 23:14:00
7:34 PM,59.0,46.4,63,30.01,10.0,NNW,10.4,-,N/A,,Clear,330,2013-06-17 23:34:00
7:54 PM,57.2,46.4,67,30.01,10.0,North,9.2,-,N/A,,Clear,350,2013-06-17 23:54:00
8:15 PM,55.4,44.6,67,30.02,10.0,NNW,8.1,-,N/A,,Clear,330,2013-06-18 00:15:00
8:34 PM,53.6,44.6,72,30.02,10.0,NNW,8.1,-,N/A,,Clear,330,2013-06-18 00:34:00
8:55 PM,51.8,44.6,76,30.02,10.0,North,9.2,-,N/A,,Clear,350,2013-06-18 00:55:00
9:14 PM,50.0,42.8,76,30.03,10.0,NNW,5.8,-,N/A,,Clear,340,2013-06-18 01:14:00
9:34 PM,48.2,42.8,82,30.03,10.0,NNW,6.9,-,N/A,,Clear,330,2013-06-18 01:34:00
9:55 PM,48.2,42.8,82,30.04,10.0,NNW,3.5,-,N/A,,Clear,330,2013-06-18 01:55:00
10:14 PM,46.4,41.0,81,30.04,10.0,NNW,4.6,-,N/A,,Clear,330,2013-06-18 02:14:00
10:34 PM,46.4,41.0,81,30.05,10.0,NNW,3.5,-,N/A,,Clear,340,2013-06-18 02:34:00
10:55 PM,44.6,39.2,81,30.06,10.0,NW,5.8,-,N/A,,Clear,320,2013-06-18 02:55:00
11:14 PM,44.6,39.2,81,30.06,10.0,NNW,4.6,-,N/A,,Clear,330,2013-06-18 03:14:00
11:35 PM,44.6,39.2,81,30.06,10.0,North,3.5,-,N/A,,Clear,350,2013-06-18 03:35:00
11:55 PM,42.8,39.2,87,30.06,10.0,NNW,3.5,-,N/A,,Clear,330,2013-06-18 03:55:00